Location: Olympia
(47.0371°N, 122.8993°W)
Time: 14:57:21
(UTC-08:00)

MOZHAYETS 4 - Visible Passes

Search period start: 15 February 2026 00:00
Search period end: 25 February 2026 00:00
Orbit: 644 x 658 km, 98.3° (Epoch: 15 February)

Date Brightness Start Highest point End Pass type
(mag) Time Alt. Az. Time Alt. Az. Time Alt. Az.
15 Feb 9.4 04:09:16 10° SE 04:13:13 30° ENE 04:17:10 10° N visible
15 Feb 8.3 05:45:50 10° SSW 05:49:50 32° W 05:53:54 10° NNW visible
15 Feb 9.9 19:11:04 10° N 19:14:47 26° WNW 19:18:31 10° WSW visible
16 Feb 8.3 04:35:28 10° SSE 04:39:51 53° ENE 04:44:15 10° N visible
16 Feb 9.0 06:13:46 10° SW 06:16:51 18° W 06:19:58 10° NW visible
16 Feb 7.7 18:00:36 10° NNE 18:05:09 72° ESE 18:09:40 10° S visible
16 Feb 10.6 19:38:37 10° NNW 19:41:18 16° WNW 19:43:57 10° W visible
17 Feb 10.6 03:28:21 10° E 03:30:32 13° ENE 03:32:44 10° NNE visible
17 Feb 7.5 05:02:04 10° SSE 05:06:34 85° WSW 05:11:07 10° NNW visible
17 Feb 8.2 18:27:25 10° N 18:31:55 63° WNW 18:36:23 10° SSW visible
18 Feb 10.0 03:53:32 10° ESE 03:57:00 22° ENE 04:00:29 10° NNE visible
18 Feb 7.9 05:29:04 10° S 05:33:23 46° W 05:37:46 10° NNW visible
18 Feb 9.4 18:54:25 10° N 18:58:34 36° WNW 19:02:41 10° SW visible
19 Feb 9.1 04:19:25 10° SE 04:23:34 37° ENE 04:27:44 10° N visible
19 Feb 8.6 05:56:34 10° SSW 06:00:20 26° W 06:04:08 10° NW visible
19 Feb 10.2 19:21:42 10° NNW 19:25:07 21° WNW 19:28:31 10° WSW visible
20 Feb 8.0 04:45:46 10° SSE 04:50:13 67° ENE 04:54:44 10° N visible
20 Feb 9.3 06:24:50 10° SW 06:27:22 15° W 06:29:54 10° NW visible
20 Feb 7.7 18:11:00 10° NNE 18:15:34 89° ESE 18:20:06 10° SSW visible
20 Feb 10.7 19:49:31 10° NNW 19:51:34 13° WNW 19:53:37 10° W visible
21 Feb 10.5 03:38:03 10° E 03:40:49 16° ENE 03:43:35 10° NNE visible
21 Feb 7.5 05:12:30 10° S 05:16:59 68° WSW 05:21:31 10° NNW visible
21 Feb 8.7 18:37:53 10° N 18:42:17 51° WNW 18:46:39 10° SW visible
22 Feb 9.7 04:03:33 10° ESE 04:07:18 27° ENE 04:11:06 10° N visible
22 Feb 8.1 05:39:40 10° SSW 05:43:50 37° W 05:48:03 10° NNW visible
22 Feb 9.7 19:04:58 10° N 19:08:53 29° WNW 19:12:48 10° SW visible
23 Feb 8.7 04:29:36 10° SE 04:33:54 46° ENE 04:38:14 10° N visible
23 Feb 8.9 06:07:22 10° SW 06:10:48 21° W 06:14:15 10° NW visible
23 Feb 10.5 19:32:23 10° NNW 19:35:24 18° WNW 19:38:25 10° WSW visible
24 Feb 10.8 03:23:03 10° ENE 03:24:40 12° NE 03:26:16 10° NE visible
24 Feb 7.7 04:56:05 10° SSE 05:00:35 83° ENE 05:05:09 10° NNW visible
24 Feb 8.0 18:21:24 10° N 18:25:57 74° WNW 18:30:26 10° SSW visible
24 Feb 11.0 20:00:48 10° NW 20:01:48 11° NW 20:02:48 10° WNW visible
